COSMOS 2491 DEB, 57569

Orbit data source: Space-Track

COSMOS 2491 DEB, 57569 is space debris in LEO originally from a launch on Wed, 25 Dec 2013 UTC launched from the Plesetsk Missile And Space Complex (PKMTR). Debris objects in space refer to the collection of defunct objects orbiting the Earth. Examples of debris include non-operational satellites, rocket bodies, and fragments generated from explosions, collisions, or faulty payload assembly.

Loading next visibility...
Identifier
57569, 2013-076BG
Orbit
LEO
Country
Flag of CISCIS
Related business
Manufacturer
TsNIIKhM
Mission
Spacecraft
Bus & Motor
Unknown
Mass
Unknown
Launch date (UTC)
2013-12-25 (13 years ago)
Launch vehicle
Unknown
Launch site
Plesetsk Missile And Space Complex (PKMTR)
Object type
Payload
Rocket body
Debris
Shape & HBR
Unknown shape, 0.1 m
Radar Cross Section
Small (<0.1 m²)

Expand to show TLE details & history
Last TLE update: 1 day ago

TLE from 1 day ago
0 COSMOS 2491 DEB
1 57569U 13076BG  26177.62111255  .00001397  00000-0  85957-2 0  9991
2 57569  82.4737 141.6800 0010830 289.5054  70.4862 12.54523415143669
Epoch: 2026-06-26T14:54Z
TLE epoch observation values (Epoch: 2026-06-26T14:54:24.124Z)
Latitude
-0.00004°
Longitude
3.33248°
Altitude
1,445.525 km
Speed
7.14 km/s
True Right ascension
09h 26m 43s
True Declination
0° 00' 00"
Sunlit
Object was in daylight at epoch
Visualization orbit readout
Latitude
Unknown
Longitude
Unknown
Altitude
Unknown
Speed
Unknown
Apparent Right ascension
Unknown
Apparent Declination
Unknown
Sunlit
N/A
Visualization observer readout
Local Sidereal Time
03:09:14
Azimuth
Unknown
Elevation
Unknown
Doppler factor
Unknown
Orbital elements
Apogee altitude
1,451.438 km
Perigee altitude
1,434.497 km
Semi-major axis
7,821.104 km
Eccentricity
0.00108
Inclination
82.4737°
RAAN
141.68°
Arg. of periapsis
289.5054°
True anomaly
70.60323°
Mean anomaly
70.4862°
Eccentric anomaly
70.54471°
Mean motion
3.13791 °/min
Orbital period
114.73 mins
BSTAR
0.0085957
Loading maneuver chart data...
Computing Atmospheric mass density...
Loading historical data...
Loading historical data...
Loading historical data...
Loading historical data...
Loading historical data...
Loading historical data...
Loading historical data...

Documentation

Showing up to 5 results
|